Regional Weather Roundup
Issued by NWS

Home | Current Version | Previous Version | Graphics & Text | Print | Product List | Glossary On
Versions: 1 2 3 4 5 6 7 8 9 10 11 12 13 14 15 16 17 18 19 20 21 22 23 24 25 26 27 28 29 30 31 32 33 34 35 36 37 38 39 40 41 42 43 44 45 46 47 48 49 50
949
ASUS45 KABQ 231401
RWRNM
NEW MEXICO REGIONAL WEATHER ROUNDUP
NATIONAL WEATHER SERVICE ALBUQUERQUE NM
800 AM MDT THU MAR 23 2017

NOTE: "FAIR" MEANS FEW OR NO CLOUDS BELOW 12,000 FEET AGL WITH NO
       SIGNIFICANT WEATHER OR OBSTRUCTIONS TO VISION.

      THIS PRODUCT IS RELEASED AS TWO VERSIONS.  ONE VERSION NEAR
      THE TOP OF THE HOUR CONTAINING PRELIMINARY DATA FROM ALBUQUERQUE
      AND OTHER STATIONS.  A FINAL VERSION WITH ADDITIONAL DATA IS
      ISSUED ABOUT 10 MINUTES AFTER THE HOUR.

NMZ501-503-504-510>518-231500-
NORTHWEST PLATEAU/NORTHCENTRAL MOUNTAINS

CITY           SKY/WX    TMP DP  RH WIND       PRES   REMARKS
FARMINGTON     FAIR      41  26  55 E10       29.83S
LOS ALAMOS     FAIR      51  14  22 S16G25    29.91S
SANTA FE       FAIR      44  18  35 N6        29.88S
TAOS             N/A     45  16  31 SW8       29.90S
ANGEL FIRE     FAIR      38  22  53 SW6       29.93F WCI  33

$$
NMZ402-403-502-505>509-231500-
WESTCENTRAL MOUNTAINS/SOUTHWEST MOUNTAINS

CITY           SKY/WX    TMP DP  RH WIND       PRES   REMARKS
GALLUP         FAIR      43  34  70 S7        29.88R
GRANTS         FAIR      40  26  56 SE3       29.92R
SILVER CITY    FAIR      43  32  63 N7        29.92S

$$
NMZ407-409-411-412-231500-
SOUTHERN DESERTS

CITY           SKY/WX    TMP DP  RH WIND       PRES   REMARKS
DEMING         FAIR      48  24  39 N3        29.88R
LAS CRUCES     FAIR      57  16  20 SW6       29.88S
HOLLOMAN AFB   FAIR      59  19  20 S7        29.88F
ALAMOGORDO     FAIR      63  23  22 S8        29.87S
T OR C         FAIR      58  20  22 S12       29.85S

$$
NMZ519>523-231500-
CENTRAL VALLEYS/CENTRAL HIGHLANDS

CITY           SKY/WX    TMP DP  RH WIND       PRES   REMARKS
ALBUQUERQUE    FAIR      57  16  20 S14       29.86S
DOUBLE EAGLE   SUNNY     50  18  27 SW12      29.88S
MORIARTY ARPT  FAIR      51  19  28 SW10      29.90S
CLINES CORNERS FAIR      52  15  23 SW24G35   29.92R
BELEN          FAIR      50  18  28 S8        29.87R
SOCORRO        FAIR      53  20  28 S5        29.87R

$$
NMZ524>526-539-540-231500-
SOUTHCENTRAL MOUNTAINS

CITY           SKY/WX    TMP DP  RH WIND       PRES   REMARKS
RUIDOSO        NOT AVBL

$$
NMZ527>531-231500-
NORTHEAST HIGHLANDS/NORTHEAST PLAINS

CITY           SKY/WX    TMP DP  RH WIND       PRES   REMARKS
LAS VEGAS      FAIR      50  16  25 S18       29.89R
RATON          FAIR      46  37  71 VRB3      29.84F
CLAYTON        FAIR      50  49  96 SW10      29.82S

$$
NMZ532>537-231500-
EASTCENTRAL PLAINS

CITY           SKY/WX    TMP DP  RH WIND       PRES   REMARKS
SANTA ROSA     CLOUDY    52  51  97 CALM      29.85R FOG
TUCUMCARI      FAIR      61  54  77 S13       29.81R
CANNON AFB     FAIR      56  56 100 S12       29.87R
CLOVIS AIRPORT CLOUDY    57  52  82 S16G23    29.88R

$$
NMZ028-029-538-231500-
SOUTHEAST PLAINS

CITY           SKY/WX    TMP DP  RH WIND       PRES   REMARKS
ROSWELL        CLOUDY    58  56  93 S16       29.85  FOG
ARTESIA        CLOUDY    59  59 100 SE20      29.86R FOG
CARLSBAD       FAIR      57  56  96 S3        29.85R
HOBBS          SUNNY     59  55  88 SE12      29.92R


$$




USA.gov is the U.S. government's official web portal to all federal, state and local government web resources and services.